Home   Weather   Canvey Island   Past weeks

Flag for United Kingdom Past Weather in Canvey Island, England, United Kingdom — Yesterday and Last 2 Weeks

Now
64 °F

Passing clouds.


Feels Like: 64 °F
Forecast: 44 / 60 °F
Wind: 16 mph from Southwest

Location: Southend Airport-On-Sea

Current Time: Sep 30, 2016 at 12:51:06 PM

Latest Report: Sep 30, 2016 at 12:20 PM


Visibility: N/A

Pressure: 29.92 "Hg

Humidity: 46%

Dew Point: 43 °F

Location of Canvey IslandLocation

Past Weather in Canvey Island — Graph

°F

Canvey Island Temperature Yesterday

Maximum temperature yesterday: 68 °F (at 2:50 PM)
Minimum temperature yesterday: 57 °F (at 8:50 PM)
Average temperature yesterday: 63 °F

High & Low Weather Summary for the Past Weeks

 TemperatureHumidityPressure
High81 °F (Sep 15, 12:50 PM)94% (Sep 19, 2:50 AM)30.30 "Hg (Sep 19, 2:50 AM)
Low45 °F (Sep 26, 6:50 AM)33% (Sep 24, 3:20 PM)29.77 "Hg (Sep 15, 1:20 PM)
Average62 °F71%30.07 "Hg
* Reported Sep 15 11:20 AM — Sep 30 11:20 AM, Canvey Island, Weather by CustomWeather, © 2016

Note: Actual official high and low records may vary slightly from our data, if they occured in-between our weather recording intervals... More about our weather records

Advertising

Canvey Island Weather History for the Previous 24 Hours

Scroll right to see more
 ConditionsComfort  
Time TempWeatherWind HumidityBarometerVisibility
11:20 AM
Fri, Sep 30
63 °FPassing clouds.15 mph49%29.92 "HgN/A
10:50 AM61 °FPassing clouds.13 mph55%29.92 "HgN/A
10:20 AM61 °FPassing clouds.13 mph55%29.92 "HgN/A
9:50 AM59 °FSunny.13 mph63%29.92 "Hg10 mi
9:20 AM57 °FSunny.10 mph67%29.92 "Hg10 mi
8:50 AM55 °FPassing clouds.8 mph72%29.92 "HgN/A
8:20 AM54 °FSunny.7 mph82%29.92 "Hg10 mi
7:50 AM52 °FSunny.8 mph82%29.92 "Hg10 mi
7:20 AM52 °FSunny.9 mph82%29.92 "Hg10 mi
6:50 AM54 °FClear.9 mph77%29.92 "Hg10 mi
6:20 AM54 °FClear.8 mph77%29.92 "Hg10 mi
5:50 AM54 °FClear.8 mph77%29.92 "Hg10 mi
4:50 AM54 °FClear.9 mph77%29.92 "Hg10 mi
4:20 AM55 °FClear.9 mph72%29.92 "Hg10 mi
3:50 AM55 °FClear.9 mph72%29.92 "Hg10 mi
2:50 AM55 °FClear.9 mph72%29.92 "Hg10 mi
1:50 AM55 °FClear.10 mph72%29.92 "Hg10 mi
12:50 AM55 °FClear.8 mph72%29.95 "Hg10 mi
11:50 PM
Thu, Sep 29
57 °FClear.9 mph67%29.95 "Hg10 mi
11:20 PM57 °FClear.9 mph67%29.95 "Hg10 mi
10:50 PM57 °FClear.10 mph67%29.95 "Hg10 mi
10:20 PM59 °FClear.8 mph63%29.95 "Hg10 mi
9:50 PM57 °FClear.9 mph63%29.95 "Hg10 mi
9:20 PM59 °FClear.9 mph59%29.95 "Hg10 mi
8:50 PM57 °FClear.10 mph55%29.95 "Hg10 mi
8:20 PM59 °FClear.13 mph51%29.95 "Hg10 mi
7:50 PM61 °FClear.15 mph48%29.92 "Hg10 mi
7:20 PM63 °FPassing clouds.14 mph45%29.92 "HgN/A
6:50 PM64 °FPassing clouds.15 mph46%29.92 "HgN/A
6:20 PM66 °FPassing clouds.13 mph46%29.92 "HgN/A
5:50 PM66 °FPassing clouds.20 mph46%29.92 "HgN/A
5:20 PM66 °FPassing clouds.21 mph46%29.92 "HgN/A
4:50 PM68 °FPassing clouds.17 mph43%29.89 "HgN/A
4:20 PM68 °FPassing clouds.17 mph43%29.89 "HgN/A
3:50 PM68 °FPassing clouds.14 mph43%29.89 "HgN/A
3:20 PM68 °FPassing clouds.17 mph49%29.92 "HgN/A
2:50 PM68 °FPassing clouds.20 mph46%29.92 "HgN/A
2:20 PM66 °FPassing clouds.16 mph56%29.92 "HgN/A
1:50 PM66 °FPassing clouds.16 mph60%29.92 "HgN/A
1:20 PM64 °FPassing clouds.14 mph64%29.92 "HgN/A
12:50 PM63 °FScattered clouds.14 mph68%29.92 "HgN/A
12:20 PM63 °FScattered clouds.17 mph68%29.92 "HgN/A
Weather by CustomWeather, © 2016

See weather overviewHow to use our weather pages